Starlink 5887

operational
NORAD ID: 56349 Int'l Des: 2023-058 Owner: SPXS Country: US Constellation: starlink
LEOCIRCULARRETROGRADESSO

Starlink 5887について

説明を読み込み中...

リアルタイム位置

3D地球を読み込み中...

次回通過

高度履歴

Altitude vs Time

uPlot chart will show altitude changes over time

軌道要素

1 56349U 23058AJ 26093.98874091 -.00000395 00000-0 -23134-4 0 9997
2 56349 97.6036 95.0936 0002318 86.0985 274.0507 15.05644337161935
Epoch: Apr 3, 2026 • Age: 21 hours

現在のステータス

高度 561.1 km
速度 7.59 km/s
衛星直下点 78.23°N, 89.16°W
打ち上げ日 Apr 27, 2023
運用期間 2.9 years
タイプ internet

技術仕様

分類 Payload
質量 300.00 kg
乾燥質量 260.00 kg
総質量 300.00 kg
長さ 0.20 m
直径 2.80 m
スパン 9.00 m
形状 Box + pan
製造者 SPXS
バスタイプ Starlink
フェーズステータス In Orbit
所有者/国 SPXS/US

大規模コンステレーション

Loading constellations...